Location: Peterborough
(44.3091°N, 78.3197°W)
Time: 01:38:52
(UTC-04:00)

SR - Pass Details

Date: 26 March 2023
Orbit: 581 x 867 km, 66.7° (Epoch: 02 June)

Event Time Altitude Azimuth Distance (km) Brightness Sun altitude
Rises 13:31:02 0° 305° (NW) 2,834 ? 47.9°
Reaches altitude 10° 13:35:00 10° 268° (W) 1,968 ? 47.8°
Maximum altitude 13:36:06 11° 254° (WSW) 1,926 ? 47.8°
Drops below altitude 10° 13:37:12 10° 239° (WSW) 1,994 ? 47.8°
Sets 13:41:21 0° 203° (SSW) 2,966 ? 47.7°
